This demonstration page uses our WeatherBlox Daily Observations layout. Learn more.

Left ArrowRight Arrow

39.29038, -76.61219

Hourly Observations for January 8, 2015

Temp ( °F °C ) Dew Point ( °F °C ) Humidity (%) Winds ( mph kmh ) Pressure ( in mb ) Visibility ( mi km ) Precip ( " mm )
12:54 am 00:54 undefined 13 -10.6 -4 -20 46 46 undefined N/A 30.47 1032 N/A 0.00 0.00
1:54 am 01:54 undefined 12 -11.1 -5 -20.6 46 46 undefined N/A 30.48 1032 N/A 0.00 0.00
2:54 am 02:54 undefined 11 -11.7 -4 -20 51 51 undefined N/A 30.50 1033 N/A 0.00 0.00
3:54 am 03:54 undefined 11 -11.7 -4 -20 51 51 undefined N/A 30.50 1033 N/A 0.00 0.00
4:54 am 04:54 undefined 11 -11.7 -5 -20.6 48 48 undefined N/A 30.49 1033 N/A 0.00 0.00
5:54 am 05:54 undefined 11 -11.7 -6 -21.1 46 46 undefined N/A 30.51 1033 N/A 0.00 0.00
6:54 am 06:54 undefined 10 -12.2 -6 -21.1 48 48 undefined N/A 30.55 1035 N/A 0.00 0.00
7:54 am 07:54 undefined 10 -12.2 -6 -21.1 48 48 undefined N/A 30.58 1035 N/A 0.00 0.00
8:54 am 08:54 undefined 12 -11.1 -6 -21.1 44 44 undefined N/A 30.60 1036 N/A 0.00 0.00
9:54 am 09:54 undefined 14 -10 -6 -21.1 40 40 undefined N/A 30.50 1033 N/A 0.00 0.00
10:54 am 10:54 undefined 15 -9.4 -6 -21.1 38 38 undefined N/A 30.60 1036 N/A 0.00 0.00
11:54 am 11:54 undefined 16 -8.9 -4 -20 41 41 undefined N/A 30.53 1034 N/A 0.00 0.00
12:54 pm 12:54 undefined 18 -7.8 -4 -20 37 37 undefined N/A 30.44 1031 N/A 0.00 0.00
1:54 pm 13:54 undefined 19 -7.2 -5 -20.6 34 34 undefined N/A 30.45 1031 N/A 0.00 0.00
2:54 pm 14:54 undefined 19 -7.2 -4 -20 36 36 undefined N/A 30.43 1030 N/A 0.00 0.00
3:54 pm 15:54 undefined 19 -7.2 -5 -20.6 34 34 undefined N/A 30.48 1032 N/A 0.00 0.00
4:54 pm 16:54 undefined 19 -7.2 -5 -20.6 34 34 undefined N/A 30.36 1028 N/A 0.00 0.00
6:54 pm 18:54 undefined 20 -6.7 -2 -18.9 38 38 undefined N/A 30.42 1030 N/A 0.00 0.00
7:54 pm 19:54 undefined 20 -6.7 -1 -18.3 40 40 undefined N/A 30.28 1025 N/A 0.00 0.00
8:54 pm 20:54 undefined 20 -6.7 -1 -18.3 40 40 undefined N/A 30.39 1029 N/A 0.00 0.00
9:54 pm 21:54 undefined 21 -6.1 -1 -18.3 38 38 undefined N/A 30.24 1024 N/A 0.00 0.00
10:54 pm 22:54 undefined 22 -5.6 0 -17.8 38 38 undefined N/A 30.28 1025 N/A 0.00 0.00
11:54 pm 23:54 undefined 23 -5 0 -17.8 36 36 undefined N/A 30.21 1023 N/A 0.00 0.00

Powered by AerisWeather